Weather History for KCBK - March, 2014

Change the Weather History Date:

Tuesday, March 25, 2014

  Actual Average (KGLD) Record (KGLD)
Temperature  
Mean Temperature 38 °F 43 °F  
Max Temperature 53 °F 57 °F 85 °F (1907)
Min Temperature 24 °F 29 °F -6 °F (1965)
Degree Days  
Heating Degree Days 26 22  
Month to date heating degree days 632  
Since 1 July heating degree days 5049  
Cooling Degree Days 0 0  
Month to date cooling degree days 0  
Year to date cooling degree days 0  
Moisture  
Dew Point 26 °F    
Average Humidity 65    
Maximum Humidity 100    
Minimum Humidity 38    
Precipitation  
Precipitation 0.00 in 0.04 in 0.50 in (1959)
Month to date precipitation 0.81  
Year to date precipitation 1.68  
Snow  
Snow 0.00 in 0.30 in - ()
Month to date snowfall 5.3  
Since 1 July snowfall 29.3  
Snow Depth -    
Sea Level Pressure  
Sea Level Pressure 30.20 in    
Wind  
Wind Speed 9 mph (ESE)    
Max Wind Speed 22 mph    
Max Gust Speed 28 mph    
Visibility 10 miles    
Events Snow    
T = Trace of Precipitation, MM = Missing Value Source: NWS Daily Summary

Daily Weather History Graph

Daily Weather History Graph

Search for Another Location

Airport or City:

Trip Planner

Search our weather history database for the weather conditions in past years. The results will help you decide how hot, cold, wet, or windy it might be!

Date:

Astronomy

Mar. 25, 2014 Rise Set
Actual Time 7:39 AM CDT 8:01 PM CDT
Civil Twilight 7:12 AM CDT 8:28 PM CDT
Nautical Twilight 6:41 AM CDT 8:59 PM CDT
Astronomical Twilight 6:09 AM CDT 9:32 PM CDT
Moon 4:01 AM CDT (3/25) 2:35 PM CDT (3/25)
Length of Visible Light 13h 15m
Length of Day
12h 21m
Waning Crescent, 32% of the Moon is Illuminated
Mar 25
Waning Crescent
Mar 30
New
Apr 7
First Quarter
Apr 15
Full
Apr 22
Last Quarter

Hourly Weather History & Observations

Time (CDT) Temp. Windchill Dew Point Humidity Pressure Visibility Wind Dir Wind Speed Gust Speed Precip Events Conditions
12:10 AM 24.8 °F - 19.4 °F 80% 30.27 in 10.0 mi Calm Calm - N/A   Mostly Cloudy
12:30 AM 28.4 °F 24.6 °F 21.2 °F 74% 30.27 in 10.0 mi North 3.5 mph - N/A   Overcast
12:55 AM 24.8 °F 17.9 °F 19.4 °F 80% 30.29 in 10.0 mi WSW 5.8 mph - N/A   Overcast
1:10 AM 24.8 °F 17.9 °F 19.4 °F 80% 30.29 in 10.0 mi West 5.8 mph - N/A   Overcast
1:30 AM 28.4 °F 22.2 °F 23.0 °F 80% 30.29 in 10.0 mi West 5.8 mph - N/A   Overcast
1:50 AM 30.2 °F 21.9 °F 23.0 °F 75% 30.30 in 10.0 mi NW 9.2 mph - N/A   Overcast
2:10 AM 32.0 °F 26.4 °F 23.0 °F 69% 30.31 in 10.0 mi West 5.8 mph - N/A   Overcast
2:30 AM 32.0 °F 26.4 °F 24.8 °F 75% 30.31 in 10.0 mi NNW 5.8 mph - N/A   Overcast
2:50 AM 32.0 °F 27.5 °F 26.6 °F 80% 30.32 in 10.0 mi NNW 4.6 mph - N/A   Overcast
3:10 AM 32.0 °F 25.6 °F 28.4 °F 87% 30.32 in 10.0 mi NNW 6.9 mph - N/A   Overcast
3:30 AM 32.0 °F 24.8 °F 32.0 °F 100% 30.33 in 4.0 mi North 8.1 mph - N/A Snow Light Snow
3:50 AM 32.0 °F 23.0 °F 32.0 °F 100% 30.32 in 7.0 mi North 11.5 mph - N/A Snow Light Snow
4:10 AM 32.0 °F 20.8 °F 28.4 °F 87% 30.33 in 10.0 mi NNE 17.3 mph - N/A Snow Light Snow
4:30 AM 30.2 °F 20.2 °F 26.6 °F 86% 30.33 in 10.0 mi NNE 12.7 mph - N/A   Overcast
4:50 AM 30.2 °F 20.2 °F 26.6 °F 86% 30.33 in 10.0 mi NE 12.7 mph - N/A   Overcast
5:10 AM 30.2 °F 22.6 °F 26.6 °F 86% 30.34 in 10.0 mi NNE 8.1 mph - N/A   Overcast
5:30 AM 30.2 °F 21.3 °F 24.8 °F 80% 30.33 in 10.0 mi NNE 10.4 mph - N/A   Overcast
5:50 AM 30.2 °F 22.6 °F 24.8 °F 80% 30.34 in 10.0 mi NNE 8.1 mph - N/A   Overcast
6:10 AM 28.4 °F 18.5 °F 24.8 °F 86% 30.34 in 10.0 mi NNE 11.5 mph - N/A   Overcast
6:30 AM 28.4 °F 19.7 °F 24.8 °F 86% 30.34 in 10.0 mi NE 9.2 mph - N/A   Overcast
6:50 AM 28.4 °F 23.3 °F 24.8 °F 86% 30.35 in 10.0 mi NE 4.6 mph - N/A   Overcast
7:10 AM 28.4 °F 23.3 °F 24.8 °F 86% 30.35 in 10.0 mi NE 4.6 mph - N/A   Overcast
7:30 AM 28.4 °F 22.2 °F 24.8 °F 86% 30.35 in 10.0 mi NE 5.8 mph - N/A   Overcast
7:50 AM 28.4 °F 24.6 °F 24.8 °F 86% 30.36 in 10.0 mi ENE 3.5 mph - N/A   Overcast
8:10 AM 28.4 °F - 24.8 °F 86% 30.36 in 10.0 mi Calm Calm - N/A   Overcast
8:30 AM 28.4 °F 23.3 °F 24.8 °F 86% 30.36 in 10.0 mi NE 4.6 mph - N/A   Overcast
8:50 AM 28.4 °F 22.2 °F 23.0 °F 80% 30.36 in 10.0 mi NE 5.8 mph - N/A   Overcast
9:10 AM 30.2 °F 26.7 °F 23.0 °F 75% 30.36 in 10.0 mi East 3.5 mph - N/A   Overcast
9:30 AM 30.2 °F 25.4 °F 23.0 °F 75% 30.37 in 10.0 mi ENE 4.6 mph - N/A   Overcast
9:50 AM 30.2 °F 24.3 °F 23.0 °F 75% 30.36 in 10.0 mi ENE 5.8 mph - N/A   Overcast
10:10 AM 30.2 °F 21.9 °F 23.0 °F 75% 30.35 in 10.0 mi ENE 9.2 mph - N/A   Overcast
10:30 AM 32.0 °F 25.6 °F 23.0 °F 69% 30.35 in 10.0 mi ENE 6.9 mph - N/A   Overcast
10:50 AM 32.0 °F 26.4 °F 23.0 °F 69% 30.35 in 10.0 mi East 5.8 mph - N/A   Scattered Clouds
11:10 AM 32.0 °F 27.5 °F 23.0 °F 69% 30.34 in 10.0 mi SE 4.6 mph - N/A   Clear
11:30 AM 33.8 °F 29.6 °F 24.8 °F 70% 30.34 in 10.0 mi East 4.6 mph - N/A   Clear
11:50 AM 33.8 °F 26.4 °F 26.6 °F 75% 30.32 in 10.0 mi SSE 9.2 mph - N/A   Clear
12:10 PM 35.6 °F 29.2 °F 26.6 °F 70% 30.31 in 10.0 mi ESE 8.1 mph - N/A   Clear
12:30 PM 37.4 °F 34.9 °F 26.6 °F 65% 30.29 in 10.0 mi SSE 3.5 mph - N/A   Clear
12:50 PM 37.4 °F 29.8 °F 26.6 °F 65% 30.29 in 10.0 mi SSE 11.5 mph - N/A   Clear
1:10 PM 39.2 °F 31.2 °F 26.6 °F 61% 30.26 in 10.0 mi SSE 13.8 mph 17.3 mph N/A   Clear
1:30 PM 41.0 °F 33.1 °F 26.6 °F 57% 30.25 in 10.0 mi SSE 15.0 mph 20.7 mph N/A   Clear
1:50 PM 42.8 °F 35.4 °F 26.6 °F 53% 30.23 in 10.0 mi SSE 15.0 mph - N/A   Clear
2:10 PM 42.8 °F 34.5 °F 26.6 °F 53% 30.22 in 10.0 mi South 18.4 mph 21.9 mph N/A   Clear
2:30 PM 44.6 °F 37.8 °F 26.6 °F 49% 30.20 in 10.0 mi SSW 15.0 mph 21.9 mph N/A   Clear
2:50 PM 44.6 °F 37.8 °F 26.6 °F 49% 30.18 in 10.0 mi South 15.0 mph 23.0 mph N/A   Clear
3:10 PM 44.6 °F 38.8 °F 26.6 °F 49% 30.16 in 10.0 mi South 11.5 mph 24.2 mph N/A   Clear
3:30 PM 46.4 °F 39.5 °F 26.6 °F 46% 30.14 in 10.0 mi SSE 17.3 mph 21.9 mph N/A   Clear
3:50 PM 48.2 °F - 26.6 °F 43% 30.13 in 10.0 mi South 17.3 mph 21.9 mph N/A   Clear
4:10 PM 50.0 °F - 26.6 °F 40% 30.11 in 10.0 mi South 18.4 mph 24.2 mph N/A   Clear
4:30 PM 50.0 °F - 28.4 °F 43% 30.09 in 10.0 mi South 16.1 mph 25.3 mph N/A   Clear
4:50 PM 51.8 °F - 28.4 °F 41% 30.08 in 10.0 mi South 17.3 mph 21.9 mph N/A   Clear
5:10 PM 51.8 °F - 28.4 °F 41% 30.07 in 10.0 mi South 19.6 mph 25.3 mph N/A   Clear
5:30 PM 51.8 °F - 28.4 °F 41% 30.06 in 10.0 mi SSE 17.3 mph 23.0 mph N/A   Clear
5:50 PM 51.8 °F - 28.4 °F 41% 30.04 in 10.0 mi South 17.3 mph 26.5 mph N/A   Clear
6:10 PM 53.6 °F - 28.4 °F 38% 30.02 in 10.0 mi SSE 19.6 mph 25.3 mph N/A   Clear
6:30 PM 53.6 °F - 28.4 °F 38% 30.02 in 10.0 mi SSE 21.9 mph 27.6 mph N/A   Clear
6:50 PM 53.6 °F - 28.4 °F 38% 30.00 in 10.0 mi SSE 19.6 mph 24.2 mph N/A   Clear
7:10 PM 51.8 °F - 28.4 °F 41% 29.99 in 10.0 mi SSE 18.4 mph 25.3 mph N/A   Clear
7:30 PM 51.8 °F - 28.4 °F 41% 29.98 in 10.0 mi SSE 16.1 mph - N/A   Clear
7:50 PM 50.0 °F - 28.4 °F 43% 29.97 in 10.0 mi SSE 15.0 mph - N/A   Clear
8:10 PM 46.4 °F 40.1 °F 26.6 °F 46% 29.96 in 10.0 mi SSE 15.0 mph - N/A   Clear
8:30 PM 46.4 °F 39.8 °F 26.6 °F 46% 29.95 in 10.0 mi SE 16.1 mph - N/A   Clear
8:50 PM 44.6 °F 37.4 °F 26.6 °F 49% 29.95 in 10.0 mi SE 16.1 mph - N/A   Clear
9:10 PM 44.6 °F 37.4 °F 26.6 °F 49% 29.95 in 10.0 mi SE 16.1 mph - N/A   Clear
9:30 PM 42.8 °F 35.1 °F 26.6 °F 53% 29.94 in 10.0 mi SE 16.1 mph - N/A   Clear
9:50 PM 42.8 °F 34.8 °F 26.6 °F 53% 29.94 in 10.0 mi SE 17.3 mph - N/A   Clear
10:10 PM 41.0 °F 31.9 °F 26.6 °F 57% 29.93 in 10.0 mi SSE 19.6 mph 24.2 mph N/A   Clear
10:30 PM 41.0 °F 31.9 °F 26.6 °F 57% 29.93 in 10.0 mi SSE 19.6 mph 25.3 mph N/A   Clear
10:50 PM 41.0 °F 31.9 °F 26.6 °F 57% 29.93 in 10.0 mi SSE 19.6 mph 24.2 mph N/A   Clear
11:10 PM 41.0 °F 31.6 °F 26.6 °F 57% 29.92 in 10.0 mi SSE 20.7 mph 25.3 mph N/A   Clear
11:30 PM 39.2 °F 29.0 °F 26.6 °F 61% 29.92 in 10.0 mi SSE 21.9 mph - N/A   Clear
11:50 PM 39.2 °F 29.6 °F 26.6 °F 61% 29.91 in 10.0 mi SSE 19.6 mph - N/A   Clear